ATLAS 5 CENTAUR DEB, 44894

Orbit data source: Space-Track

ATLAS 5 CENTAUR DEB, 44894 is space debris in HEO originally from a launch on Wed, 17 Sep 2014 UTC launched from the Air Force Eastern Test Range (AFETR). Debris objects in space refer to the collection of defunct objects orbiting the Earth. Examples of debris include non-operational satellites, rocket bodies, and fragments generated from explosions, collisions, or faulty payload assembly.

Loading next visibility...
Identifier
44894, 2014-055CK
Orbit
HEO
Country
Flag of USUS
Related business
Flag of USUnited Launch Alliance/Lockheed Martin (US)
Manufacturer
Unknown
Mission
Spacecraft
Bus & Motor
Unknown
Mass
Unknown
Launch date (UTC)
2014-09-17 (12 years ago)
Launch vehicle
Unknown
Launch site
Air Force Eastern Test Range (AFETR)
Object type
Payload
Rocket body
Debris
Shape & HBR
Unknown shape, 1.1 m
Radar Cross Section
Medium (>0.1 m² and <1 m²)

Expand to show TLE details & history
Last TLE update: 2 days ago

TLE from 2 days ago
0 ATLAS 5 CENTAUR DEB
1 44894U 14055CK  26171.24977433 -.00000230  00000-0  00000+0 0  9995
2 44894  22.4661  28.3566 5480096  20.9146 354.9421  2.03481072 48935
Epoch: 2026-06-20T05:59Z
TLE epoch observation values (Epoch: 2026-06-20T05:59:40.502Z)
Latitude
-0.00002°
Longitude
29.98607°
Altitude
5,794.747 km
Speed
7.095 km/s
True Right ascension
01h 53m 29s
True Declination
0° 00' 00"
Sunlit
Object was in daylight at epoch
Visualization orbit readout
Latitude
Unknown
Longitude
Unknown
Altitude
Unknown
Speed
Unknown
Apparent Right ascension
Unknown
Apparent Declination
Unknown
Sunlit
N/A
Visualization observer readout
Local Sidereal Time
21:39:19
Azimuth
Unknown
Elevation
Unknown
Doppler factor
Unknown
Orbital elements
Apogee altitude
34,347.07 km
Perigee altitude
5,512.876 km
Semi-major axis
26,308.11 km
Eccentricity
0.54801
Inclination
22.4661°
RAAN
28.3566°
Arg. of periapsis
20.9146°
True anomaly
339.60023°
Mean anomaly
354.9421°
Eccentric anomaly
348.89388°
Mean motion
0.50864 °/min
Orbital period
707.77 mins
BSTAR
0
Loading maneuver chart data...
Computing Atmospheric mass density...

Documentation

Showing up to 5 results
|